Location: Nairn
(57.5833°N, 3.8667°W)
Time: 22:53:58
(UTC+00:00)

Tiros 1 - Pass Details

Date: 03 December 2020
Orbit: 630 x 663 km, 48.4° (Epoch: 22 January)

Event Time Altitude Azimuth Distance (km) Brightness Sun altitude
Rises 18:33:53 0° 265° (W) 2,995 12.1 -22.4°
Reaches altitude 10° 18:36:49 10° 247° (WSW) 2,077 10.8 -22.8°
Maximum altitude 18:40:08 19° 203° (SSW) 1,561 9.4 -23.2°
Enters shadow 18:42:40 13° 167° (SSE) 1,867 9.4 -23.5°
Drops below altitude 10° 18:43:27 10° 159° (SSE) 2,060 - -23.6°
Sets 18:46:20 0° 142° (SE) 2,963 - -24.0°
